Location: McFarlands Corners
(41.4117°N, 81.3382°W)
Time: 08:31:22
(UTC+00:00)

Vanguard 1 Rocket - Pass Details

Date: 18 February 2026
Orbit: 653 x 4214 km, 34.3° (Epoch: 12 March)

Event Time Altitude Azimuth Distance (km) Brightness Sun altitude
Rises 21:11:14 0° 265° (W) 5,001 12.2 18.2°
Reaches altitude 10° 21:13:53 10° 263° (W) 4,349 12.2 17.8°
Maximum altitude 21:26:46 67° 184° (S) 3,147 10.6 15.7°
Drops below altitude 10° 21:50:11 10° 109° (ESE) 7,304 11.6 11.9°
Sets 21:56:20 0° 107° (ESE) 8,447 11.9 10.9°
